STARLINK-34344, 64159

Orbit data source: Space-Track

STARLINK-34344, 64159 is a payload satellite owned by SpaceX/Seattle (US) in SSO that was launched on Tue, 27 May 2025 UTC via an FALCON 9 launch vehicle from the Air Force Western Test Range (AFWTR). Payload-class satellites include a variety of spacecraft equipped with specific instruments for various scientific and technological missions. These include communications satellites like Starlink; space stations such as the ISS; scientific satellites like the Hubble; Earth observation satellites from companies like Planet Labs, Umbra, and HawkEye 360; GPS; miniature CubeSats for education and research; and military/defense satellites.

Loading next visibility...
Identifier
64159, 2025-112P
Orbit
SSO
Country
Flag of USUS
Related business
Manufacturer
SpaceX/Seattle
Mission
Operational Commercial Communications
Bus & Motor
STARLINK V2MO, Unknown motor
Mass
575 kg wet, ~530 kg dry
Launch date (UTC)
2025-05-27 (1 year ago)
Launch vehicle
FALCON 9
Launch site
Air Force Western Test Range (AFWTR)
Object type
Payload
Rocket body
Debris
Shape & HBR
Box + 2 Pan, 17.7 m
Radar Cross Section
36.964 m², Large (>1 m²)

Expand to show TLE details & history
Last TLE update: 16 hours ago

TLE from 16 hours ago
0 STARLINK-34344
1 64159U 25112P   26145.10705938  .00004557  00000-0  31941-3 0  9999
2 64159  97.4530 196.4315 0003768 118.2189 241.9419 15.05682321 54808
Epoch: 2026-05-25T02:34Z
TLE epoch observation values (Epoch: 2026-05-25T02:34:09.930Z)
Latitude
-0.00002°
Longitude
-84.80947°
Altitude
553.71 km
Speed
7.584 km/s
True Right ascension
13h 05m 43s
True Declination
0° 00' 00"
Sunlit
Object was in full shadow at epoch
Visualization orbit readout
Latitude
Unknown
Longitude
Unknown
Altitude
Unknown
Speed
Unknown
Apparent Right ascension
Unknown
Apparent Declination
Unknown
Sunlit
N/A
Visualization observer readout
Local Sidereal Time
03:50:37
Azimuth
Unknown
Elevation
Unknown
Doppler factor
Unknown
Orbital elements
Apogee altitude
549.008 km
Perigee altitude
543.79 km
Semi-major axis
6,924.536 km
Eccentricity
0.00038
Inclination
97.453°
RAAN
196.4315°
Arg. of periapsis
118.2189°
True anomaly
241.90381°
Mean anomaly
241.9419°
Eccentric anomaly
241.92285°
Mean motion
3.76667 °/min
Orbital period
95.58 mins
BSTAR
0.00031941
Loading maneuver chart data...
Computing Atmospheric mass density...
Loading historical data...
Loading historical data...
Loading historical data...
Loading historical data...
Loading historical data...
Loading historical data...
Loading historical data...

Documentation

Showing up to 5 results
|